Time,TemperatureF,DewpointF,PressureIn,WindDirection,WindDirectionDegrees,WindSpeedMPH,WindSpeedGustMPH,Humidity,HourlyPrecipIn,Conditions,Clouds,dailyrainin,SoftwareType,DateUTC
2013-07-31 00:13:00,71.1,68.0,30.11,SW,216,0.0,0.0,91,0.00,,,0.00,weatherlink.com 1.10,2013-07-31 04:13:00,
2013-07-31 00:28:00,71.2,69.0,30.11,SW,215,0.0,1.0,91,0.00,,,0.00,weatherlink.com 1.10,2013-07-31 04:28:00,
2013-07-31 00:43:00,70.8,68.0,30.11,SW,215,0.0,0.0,91,0.00,,,0.00,weatherlink.com 1.10,2013-07-31 04:43:00,
2013-07-31 00:58:00,70.5,68.0,30.11,SW,215,0.0,0.0,91,0.00,,,0.00,weatherlink.com 1.10,2013-07-31 04:58:00,
2013-07-31 01:13:00,70.2,68.0,30.11,SW,215,0.0,0.0,91,0.00,,,0.00,weatherlink.com 1.10,2013-07-31 05:13:00,
2013-07-31 01:28:00,70.1,68.0,30.10,SSW,211,0.0,1.0,92,0.00,,,0.00,weatherlink.com 1.10,2013-07-31 05:28:00,
2013-07-31 01:43:00,69.9,68.0,30.11,SSW,211,0.0,0.0,93,0.00,,,0.00,weatherlink.com 1.10,2013-07-31 05:43:00,
2013-07-31 01:58:00,69.6,68.0,30.11,SSW,211,0.0,0.0,93,0.00,,,0.00,weatherlink.com 1.10,2013-07-31 05:58:00,
2013-07-31 02:13:00,69.4,68.0,30.12,SSW,211,0.0,0.0,94,0.00,,,0.00,weatherlink.com 1.10,2013-07-31 06:13:00,
2013-07-31 02:28:00,69.4,68.0,30.11,SSW,212,0.0,1.0,95,0.00,,,0.00,weatherlink.com 1.10,2013-07-31 06:28:00,
2013-07-31 02:43:00,69.6,68.0,30.12,WNW,292,0.0,2.0,93,0.01,,,0.01,weatherlink.com 1.10,2013-07-31 06:43:00,
2013-07-31 02:58:00,69.4,68.0,30.11,West,264,0.0,1.0,94,0.01,,,0.01,weatherlink.com 1.10,2013-07-31 06:58:00,
2013-07-31 03:13:00,69.2,68.0,30.11,NNW,338,0.0,1.0,94,0.01,,,0.01,weatherlink.com 1.10,2013-07-31 07:13:00,
2013-07-31 03:28:00,69.0,67.0,30.11,WNW,284,0.0,1.0,92,0.01,,,0.01,weatherlink.com 1.10,2013-07-31 07:28:00,
2013-07-31 03:43:00,68.7,66.0,30.10,WNW,285,0.0,1.0,91,0.00,,,0.01,weatherlink.com 1.10,2013-07-31 07:43:00,
2013-07-31 03:58:00,68.5,66.0,30.10,West,278,0.0,0.0,91,0.00,,,0.01,weatherlink.com 1.10,2013-07-31 07:58:00,
2013-07-31 04:13:00,68.3,66.0,30.10,West,278,0.0,0.0,93,0.00,,,0.01,weatherlink.com 1.10,2013-07-31 08:13:00,
2013-07-31 04:28:00,68.1,66.0,30.11,West,278,0.0,1.0,94,0.00,,,0.01,weatherlink.com 1.10,2013-07-31 08:28:00,
2013-07-31 04:43:00,68.9,67.0,30.11,ESE,108,1.0,2.0,94,0.01,,,0.02,weatherlink.com 1.10,2013-07-31 08:43:00,
2013-07-31 04:58:00,69.0,68.0,30.10,North,8,0.0,1.0,95,0.02,,,0.03,weatherlink.com 1.10,2013-07-31 08:58:00,
2013-07-31 05:14:00,68.6,67.0,30.09,NNW,339,0.0,1.0,95,0.04,,,0.05,weatherlink.com 1.10,2013-07-31 09:14:00,
2013-07-31 05:28:00,68.3,67.0,30.10,NNW,333,0.0,0.0,96,0.05,,,0.06,weatherlink.com 1.10,2013-07-31 09:28:00,
2013-07-31 05:43:00,68.1,67.0,30.09,ENE,75,0.0,1.0,96,0.06,,,0.08,weatherlink.com 1.10,2013-07-31 09:43:00,
2013-07-31 05:58:00,68.0,67.0,30.08,NW,319,0.0,2.0,97,0.08,,,0.11,weatherlink.com 1.10,2013-07-31 09:58:00,
2013-07-31 06:13:00,67.9,67.0,30.08,West,271,0.0,1.0,97,0.08,,,0.13,weatherlink.com 1.10,2013-07-31 10:13:00,
2013-07-31 06:28:00,67.9,67.0,30.09,West,268,0.0,1.0,97,0.07,,,0.13,weatherlink.com 1.10,2013-07-31 10:28:00,
2013-07-31 06:43:00,68.0,67.0,30.10,West,268,0.0,0.0,97,0.07,,,0.15,weatherlink.com 1.10,2013-07-31 10:43:00,
2013-07-31 06:58:00,68.0,67.0,30.10,West,268,0.0,1.0,97,0.04,,,0.15,weatherlink.com 1.10,2013-07-31 10:58:00,
2013-07-31 07:13:00,68.1,68.0,30.12,West,268,0.0,0.0,98,0.02,,,0.15,weatherlink.com 1.10,2013-07-31 11:13:00,
2013-07-31 07:28:00,68.1,68.0,30.11,West,268,0.0,0.0,98,0.07,,,0.20,weatherlink.com 1.10,2013-07-31 11:28:00,
2013-07-31 07:43:00,68.1,68.0,30.11,West,268,0.0,0.0,98,0.14,,,0.29,weatherlink.com 1.10,2013-07-31 11:43:00,
2013-07-31 07:58:00,68.1,68.0,30.12,West,268,0.0,0.0,98,0.23,,,0.38,weatherlink.com 1.10,2013-07-31 11:58:00,
2013-07-31 08:13:00,68.0,68.0,30.11,West,267,0.0,0.0,98,0.31,,,0.46,weatherlink.com 1.10,2013-07-31 12:13:00,
2013-07-31 08:28:00,67.8,67.0,30.11,West,267,0.0,1.0,98,0.27,,,0.47,weatherlink.com 1.10,2013-07-31 12:28:00,
2013-07-31 08:43:00,67.8,67.0,30.12,West,267,0.0,0.0,98,0.17,,,0.47,weatherlink.com 1.10,2013-07-31 12:43:00,
2013-07-31 08:59:00,68.1,68.0,30.12,West,267,0.0,1.0,98,0.14,,,0.53,weatherlink.com 1.10,2013-07-31 12:59:00,
2013-07-31 09:13:00,68.2,68.0,30.11,West,270,0.0,1.0,98,0.09,,,0.55,weatherlink.com 1.10,2013-07-31 13:13:00,
2013-07-31 09:28:00,68.3,68.0,30.11,West,270,0.0,1.0,98,0.08,,,0.55,weatherlink.com 1.10,2013-07-31 13:28:00,
2013-07-31 09:43:00,68.4,68.0,30.11,WNW,285,0.0,1.0,98,0.09,,,0.56,weatherlink.com 1.10,2013-07-31 13:43:00,
2013-07-31 09:58:00,68.5,68.0,30.10,WNW,288,0.0,0.0,98,0.06,,,0.59,weatherlink.com 1.10,2013-07-31 13:58:00,
2013-07-31 10:13:00,68.4,68.0,30.09,WNW,288,0.0,1.0,98,0.04,,,0.59,weatherlink.com 1.10,2013-07-31 14:13:00,
2013-07-31 10:28:00,68.6,68.0,30.10,WNW,288,0.0,1.0,98,0.04,,,0.59,weatherlink.com 1.10,2013-07-31 14:28:00,
2013-07-31 10:43:00,68.7,68.0,30.10,WNW,288,0.0,0.0,97,0.03,,,0.59,weatherlink.com 1.10,2013-07-31 14:43:00,
2013-07-31 10:58:00,68.5,68.0,30.10,WNW,288,0.0,1.0,98,0.00,,,0.59,weatherlink.com 1.10,2013-07-31 14:58:00,
2013-07-31 11:13:00,68.4,68.0,30.09,WSW,256,1.0,1.0,97,0.09,,,0.68,weatherlink.com 1.10,2013-07-31 15:13:00,
2013-07-31 11:28:00,68.3,68.0,30.09,WSW,257,0.0,0.0,98,0.13,,,0.72,weatherlink.com 1.10,2013-07-31 15:28:00,
2013-07-31 11:43:00,68.1,67.0,30.08,SE,139,0.0,0.0,97,0.16,,,0.75,weatherlink.com 1.10,2013-07-31 15:43:00,
2013-07-31 11:59:00,68.2,68.0,30.07,WSW,238,1.0,1.0,98,0.21,,,0.80,weatherlink.com 1.10,2013-07-31 15:59:00,
2013-07-31 12:14:00,68.5,68.0,30.07,WSW,240,0.0,1.0,98,0.13,,,0.81,weatherlink.com 1.10,2013-07-31 16:14:00,
2013-07-31 12:29:00,68.8,68.0,30.07,WSW,240,0.0,1.0,98,0.09,,,0.81,weatherlink.com 1.10,2013-07-31 16:29:00,
2013-07-31 12:44:00,69.1,69.0,30.07,WSW,257,0.0,2.0,98,0.06,,,0.81,weatherlink.com 1.10,2013-07-31 16:44:00,
2013-07-31 12:59:00,69.5,69.0,30.06,NW,315,0.0,1.0,98,0.01,,,0.81,weatherlink.com 1.10,2013-07-31 16:59:00,
2013-07-31 13:14:00,69.8,69.0,30.07,WNW,288,0.0,2.0,98,0.01,,,0.82,weatherlink.com 1.10,2013-07-31 17:14:00,
2013-07-31 13:29:00,69.9,69.0,30.06,West,276,0.0,2.0,98,0.01,,,0.82,weatherlink.com 1.10,2013-07-31 17:29:00,
2013-07-31 13:46:00,70.0,69.0,30.06,WNW,288,0.0,0.0,97,0.01,,,0.82,weatherlink.com 1.10,2013-07-31 17:46:00,
2013-07-31 13:59:00,70.3,70.0,30.05,WNW,288,0.0,0.0,98,0.01,,,0.82,weatherlink.com 1.10,2013-07-31 17:59:00,
2013-07-31 14:14:00,71.1,70.0,30.05,WNW,286,0.0,1.0,97,0.00,,,0.82,weatherlink.com 1.10,2013-07-31 18:14:00,
2013-07-31 14:29:00,71.4,70.0,30.04,West,275,0.0,1.0,96,0.00,,,0.82,weatherlink.com 1.10,2013-07-31 18:29:00,
2013-07-31 14:44:00,72.3,71.0,30.02,West,265,0.0,3.0,96,0.00,,,0.82,weatherlink.com 1.10,2013-07-31 18:44:00,
2013-07-31 14:59:00,72.9,71.0,30.02,West,274,0.0,3.0,95,0.00,,,0.82,weatherlink.com 1.10,2013-07-31 18:59:00,
2013-07-31 15:14:00,74.6,72.0,30.01,West,269,1.0,2.0,91,0.00,,,0.82,weatherlink.com 1.10,2013-07-31 19:14:00,
2013-07-31 15:29:00,74.2,72.0,30.01,West,278,0.0,2.0,91,0.00,,,0.82,weatherlink.com 1.10,2013-07-31 19:29:00,
2013-07-31 15:44:00,73.8,72.0,30.00,West,278,0.0,0.0,93,0.00,,,0.82,weatherlink.com 1.10,2013-07-31 19:44:00,
2013-07-31 15:59:00,74.5,72.0,29.99,West,271,0.0,3.0,90,0.00,,,0.82,weatherlink.com 1.10,2013-07-31 19:59:00,
2013-07-31 16:14:00,75.4,72.0,29.99,East,80,0.0,2.0,90,0.00,,,0.82,weatherlink.com 1.10,2013-07-31 20:14:00,
2013-07-31 16:29:00,76.1,72.0,29.99,WNW,290,0.0,2.0,88,0.00,,,0.82,weatherlink.com 1.10,2013-07-31 20:29:00,
2013-07-31 16:44:00,76.2,73.0,29.99,West,278,0.0,2.0,88,0.00,,,0.82,weatherlink.com 1.10,2013-07-31 20:44:00,
2013-07-31 16:59:00,76.8,73.0,29.98,WNW,290,0.0,1.0,87,0.00,,,0.82,weatherlink.com 1.10,2013-07-31 20:59:00,
2013-07-31 17:14:00,77.1,73.0,29.98,WSW,257,0.0,1.0,86,0.00,,,0.82,weatherlink.com 1.10,2013-07-31 21:14:00,
2013-07-31 17:29:00,76.9,73.0,29.97,West,279,0.0,1.0,87,0.00,,,0.82,weatherlink.com 1.10,2013-07-31 21:29:00,
2013-07-31 17:44:00,76.8,73.0,29.96,West,266,0.0,1.0,87,0.00,,,0.82,weatherlink.com 1.10,2013-07-31 21:44:00,
2013-07-31 17:59:00,77.0,73.0,29.96,WNW,283,0.0,0.0,87,0.00,,,0.82,weatherlink.com 1.10,2013-07-31 21:59:00,
2013-07-31 18:14:00,77.2,72.0,29.95,ENE,65,0.0,1.0,85,0.00,,,0.82,weatherlink.com 1.10,2013-07-31 22:14:00,
2013-07-31 18:29:00,76.8,72.0,29.95,ENE,65,0.0,0.0,86,0.00,,,0.82,weatherlink.com 1.10,2013-07-31 22:29:00,
2013-07-31 18:44:00,76.2,73.0,29.95,ENE,65,0.0,1.0,89,0.00,,,0.82,weatherlink.com 1.10,2013-07-31 22:44:00,
2013-07-31 18:59:00,76.2,73.0,29.95,ENE,65,0.0,0.0,88,0.00,,,0.82,weatherlink.com 1.10,2013-07-31 22:59:00,
2013-07-31 19:14:00,76.4,73.0,29.95,ENE,65,0.0,1.0,88,0.00,,,0.82,weatherlink.com 1.10,2013-07-31 23:14:00,
2013-07-31 19:29:00,76.7,73.0,29.96,ENE,65,0.0,0.0,87,0.00,,,0.82,weatherlink.com 1.10,2013-07-31 23:29:00,
2013-07-31 19:44:00,76.2,73.0,29.96,ENE,65,0.0,0.0,88,0.00,,,0.82,weatherlink.com 1.10,2013-07-31 23:44:00,
2013-07-31 19:59:00,75.5,72.0,29.96,ENE,65,0.0,0.0,89,0.00,,,0.82,weatherlink.com 1.10,2013-07-31 23:59:00,
2013-07-31 20:14:00,74.5,72.0,29.96,ENE,65,0.0,0.0,91,0.00,,,0.82,weatherlink.com 1.10,2013-08-01 00:14:00,
2013-07-31 20:29:00,73.9,72.0,29.96,ENE,67,0.0,0.0,93,0.00,,,0.82,weatherlink.com 1.10,2013-08-01 00:29:00,
2013-07-31 20:44:00,73.1,71.0,29.97,ENE,67,0.0,0.0,94,0.00,,,0.82,weatherlink.com 1.10,2013-08-01 00:44:00,
2013-07-31 20:59:00,72.8,71.0,29.97,ENE,67,0.0,1.0,95,0.00,,,0.82,weatherlink.com 1.10,2013-08-01 00:59:00,
2013-07-31 21:14:00,72.5,71.0,29.97,ENE,67,0.0,0.0,96,0.00,,,0.82,weatherlink.com 1.10,2013-08-01 01:14:00,
2013-07-31 21:29:00,72.5,71.0,29.97,ENE,67,0.0,0.0,96,0.00,,,0.82,weatherlink.com 1.10,2013-08-01 01:29:00,
2013-07-31 21:44:00,72.2,71.0,29.98,ENE,67,0.0,0.0,96,0.00,,,0.82,weatherlink.com 1.10,2013-08-01 01:44:00,
2013-07-31 21:59:00,72.1,71.0,29.98,ENE,67,0.0,1.0,96,0.00,,,0.82,weatherlink.com 1.10,2013-08-01 01:59:00,
2013-07-31 22:14:00,71.9,71.0,29.98,ENE,67,0.0,0.0,97,0.00,,,0.82,weatherlink.com 1.10,2013-08-01 02:14:00,
2013-07-31 22:29:00,71.8,71.0,29.98,ENE,67,0.0,1.0,97,0.00,,,0.82,weatherlink.com 1.10,2013-08-01 02:29:00,
2013-07-31 22:44:00,71.7,71.0,29.97,ENE,67,0.0,0.0,97,0.00,,,0.82,weatherlink.com 1.10,2013-08-01 02:44:00,
2013-07-31 22:59:00,71.6,71.0,29.97,ENE,67,0.0,0.0,97,0.00,,,0.82,weatherlink.com 1.10,2013-08-01 02:59:00,
2013-07-31 23:14:00,71.7,71.0,29.97,ENE,68,0.0,1.0,98,0.00,,,0.82,weatherlink.com 1.10,2013-08-01 03:14:00,
2013-07-31 23:29:00,71.7,71.0,29.98,ENE,68,0.0,0.0,98,0.00,,,0.82,weatherlink.com 1.10,2013-08-01 03:29:00,
2013-07-31 23:44:00,71.9,71.0,29.98,ENE,68,0.0,1.0,97,0.00,,,0.82,weatherlink.com 1.10,2013-08-01 03:44:00,